Time,TemperatureF,DewpointF,PressureIn,WindDirection,WindDirectionDegrees,WindSpeedMPH,WindSpeedGustMPH,Humidity,HourlyPrecipIn,Conditions,Clouds,dailyrainin,SoftwareType,DateUTC
2013-04-01 00:05:00,56.5,55.1,29.83,SW,217,0.0,1.0,95,0.00,,,0.00,Wunderground v.1.15,2013-04-01 04:05:00,
2013-04-01 00:09:00,56.4,55.0,29.83,SW,217,1.0,1.0,95,0.00,,,0.00,Wunderground v.1.15,2013-04-01 04:09:00,
2013-04-01 00:15:00,56.4,55.0,29.83,SSW,212,1.0,1.0,95,0.00,,,0.00,Wunderground v.1.15,2013-04-01 04:15:00,
2013-04-01 00:19:00,56.3,54.9,29.83,SSW,197,1.0,1.0,95,0.00,,,0.00,Wunderground v.1.15,2013-04-01 04:19:00,
2013-04-01 00:25:00,56.3,54.9,29.83,SE,138,1.0,2.0,95,0.00,,,0.00,Wunderground v.1.15,2013-04-01 04:25:00,
2013-04-01 00:29:00,56.2,54.8,29.82,SE,137,1.0,1.0,95,0.00,,,0.00,Wunderground v.1.15,2013-04-01 04:29:00,
2013-04-01 00:35:00,56.2,54.8,29.82,SE,137,1.0,1.0,95,0.00,,,0.00,Wunderground v.1.15,2013-04-01 04:35:00,
2013-04-01 00:39:00,56.2,54.8,29.82,SE,137,0.0,0.0,95,0.00,,,0.00,Wunderground v.1.15,2013-04-01 04:39:00,
2013-04-01 00:45:00,56.2,54.8,29.83,SE,144,0.0,1.0,95,0.00,,,0.00,Wunderground v.1.15,2013-04-01 04:45:00,
2013-04-01 00:49:00,56.1,54.7,29.83,SSE,158,0.0,2.0,95,0.00,,,0.00,Wunderground v.1.15,2013-04-01 04:49:00,
2013-04-01 00:55:00,56.1,55.0,29.83,SSE,158,0.0,2.0,96,0.00,,,0.00,Wunderground v.1.15,2013-04-01 04:55:00,
2013-04-01 00:59:00,56.0,54.9,29.83,SSE,157,0.0,1.0,96,0.00,,,0.00,Wunderground v.1.15,2013-04-01 04:59:00,
2013-04-01 01:05:00,56.0,54.9,29.83,SSE,166,1.0,1.0,96,0.00,,,0.00,Wunderground v.1.15,2013-04-01 05:05:00,
2013-04-01 01:10:00,56.0,54.9,29.83,SSE,155,1.0,4.0,96,0.00,,,0.00,Wunderground v.1.15,2013-04-01 05:10:00,
2013-04-01 01:15:00,55.9,54.8,29.83,SE,144,1.0,4.0,96,0.00,,,0.00,Wunderground v.1.15,2013-04-01 05:15:00,
2013-04-01 01:19:00,55.9,54.8,29.83,SE,144,1.0,1.0,96,0.00,,,0.00,Wunderground v.1.15,2013-04-01 05:19:00,
2013-04-01 01:25:00,55.8,54.7,29.83,SE,132,1.0,1.0,96,0.00,,,0.00,Wunderground v.1.15,2013-04-01 05:25:00,
2013-04-01 01:29:00,55.8,54.7,29.83,SSE,150,2.0,2.0,96,0.00,,,0.00,Wunderground v.1.15,2013-04-01 05:29:00,
2013-04-01 01:35:00,55.8,54.7,29.83,SSE,150,2.0,2.0,96,0.00,,,0.00,Wunderground v.1.15,2013-04-01 05:35:00,
2013-04-01 01:45:00,55.7,54.6,29.83,SSE,152,2.0,2.0,96,0.00,,,0.00,Wunderground v.1.15,2013-04-01 05:45:00,
2013-04-01 01:49:00,55.7,54.6,29.83,SE,140,2.0,2.0,96,0.00,,,0.00,Wunderground v.1.15,2013-04-01 05:49:00,
2013-04-01 01:55:00,55.7,54.6,29.82,SSE,148,2.0,2.0,96,0.00,,,0.00,Wunderground v.1.15,2013-04-01 05:55:00,
2013-04-01 02:00:00,55.7,54.6,29.82,South,181,2.0,2.0,96,0.00,,,0.00,Wunderground v.1.15,2013-04-01 06:00:00,
2013-04-01 02:05:00,55.7,54.6,29.83,South,169,1.0,2.0,96,0.00,,,0.00,Wunderground v.1.15,2013-04-01 06:05:00,
2013-04-01 02:09:00,55.7,54.6,29.82,SSE,148,2.0,2.0,96,0.00,,,0.00,Wunderground v.1.15,2013-04-01 06:09:00,
2013-04-01 02:15:00,55.7,54.6,29.82,SSE,159,1.0,2.0,96,0.00,,,0.00,Wunderground v.1.15,2013-04-01 06:15:00,
2013-04-01 02:25:00,55.7,54.6,29.82,SSE,159,0.0,1.0,96,0.00,,,0.00,Wunderground v.1.15,2013-04-01 06:25:00,
2013-04-01 02:29:00,55.7,54.6,29.82,SSE,159,0.0,0.0,96,0.00,,,0.00,Wunderground v.1.15,2013-04-01 06:29:00,
2013-04-01 02:35:00,55.7,54.6,29.82,SSE,159,0.0,0.0,96,0.00,,,0.00,Wunderground v.1.15,2013-04-01 06:35:00,
2013-04-01 02:40:00,55.6,54.5,29.82,SSE,159,0.0,0.0,96,0.00,,,0.00,Wunderground v.1.15,2013-04-01 06:40:00,
2013-04-01 02:49:00,55.6,54.5,29.82,SSE,159,0.0,0.0,96,0.00,,,0.00,Wunderground v.1.15,2013-04-01 06:49:00,
2013-04-01 02:55:00,55.6,54.5,29.81,SSE,159,0.0,0.0,96,0.00,,,0.00,Wunderground v.1.15,2013-04-01 06:55:00,
2013-04-01 03:00:00,55.6,54.5,29.81,SSE,159,0.0,2.0,96,0.00,,,0.00,Wunderground v.1.15,2013-04-01 07:00:00,
2013-04-01 03:05:00,55.7,54.6,29.81,SSE,158,0.0,2.0,96,0.00,,,0.00,Wunderground v.1.15,2013-04-01 07:05:00,
2013-04-01 03:15:00,55.7,54.6,29.80,SSE,167,0.0,0.0,96,0.00,,,0.00,Wunderground v.1.15,2013-04-01 07:15:00,
2013-04-01 03:20:00,55.7,54.6,29.80,SSE,168,0.0,0.0,96,0.00,,,0.00,Wunderground v.1.15,2013-04-01 07:20:00,
2013-04-01 03:25:00,55.7,54.6,29.80,SSE,167,0.0,0.0,96,0.00,,,0.00,Wunderground v.1.15,2013-04-01 07:25:00,
2013-04-01 03:29:00,55.7,54.6,29.80,SSE,168,0.0,0.0,96,0.00,,,0.00,Wunderground v.1.15,2013-04-01 07:29:00,
2013-04-01 03:35:00,55.7,54.6,29.80,SSE,163,1.0,3.0,96,0.00,,,0.00,Wunderground v.1.15,2013-04-01 07:35:00,
2013-04-01 03:45:00,55.8,55.0,29.80,SSE,154,2.0,2.0,97,0.00,,,0.00,Wunderground v.1.15,2013-04-01 07:45:00,
2013-04-01 03:49:00,55.8,55.0,29.80,SE,142,2.0,4.0,97,0.00,,,0.00,Wunderground v.1.15,2013-04-01 07:49:00,
2013-04-01 03:55:00,55.8,55.0,29.80,South,169,3.0,4.0,97,0.00,,,0.00,Wunderground v.1.15,2013-04-01 07:55:00,
2013-04-01 04:05:00,55.8,55.0,29.80,South,175,1.0,2.0,97,0.00,,,0.00,Wunderground v.1.15,2013-04-01 08:05:00,
2013-04-01 04:09:00,55.9,55.1,29.80,SW,229,0.0,2.0,97,0.00,,,0.00,Wunderground v.1.15,2013-04-01 08:09:00,
2013-04-01 04:15:00,55.9,55.1,29.80,SW,216,1.0,3.0,97,0.00,,,0.01,Wunderground v.1.15,2013-04-01 08:15:00,
2013-04-01 04:19:00,55.9,55.1,29.80,SSW,204,2.0,2.0,97,0.00,,,0.01,Wunderground v.1.15,2013-04-01 08:19:00,
2013-04-01 04:25:00,55.9,55.1,29.80,SW,217,1.0,2.0,97,0.00,,,0.01,Wunderground v.1.15,2013-04-01 08:25:00,
2013-04-01 04:29:00,56.0,55.2,29.80,SW,222,1.0,1.0,97,0.05,,,0.02,Wunderground v.1.15,2013-04-01 08:29:00,
2013-04-01 04:35:00,56.0,55.2,29.80,SW,227,1.0,1.0,97,0.05,,,0.02,Wunderground v.1.15,2013-04-01 08:35:00,
2013-04-01 04:39:00,56.0,55.2,29.80,SW,227,1.0,1.0,97,0.06,,,0.03,Wunderground v.1.15,2013-04-01 08:39:00,
2013-04-01 04:45:00,55.9,55.1,29.80,SW,227,1.0,1.0,97,0.13,,,0.04,Wunderground v.1.15,2013-04-01 08:45:00,
2013-04-01 04:55:00,55.9,55.1,29.81,SSW,208,1.0,1.0,97,0.05,,,0.05,Wunderground v.1.15,2013-04-01 08:55:00,
2013-04-01 04:59:00,55.9,55.1,29.81,SW,215,1.0,1.0,97,0.05,,,0.05,Wunderground v.1.15,2013-04-01 08:59:00,
2013-04-01 05:05:00,55.9,55.1,29.81,SW,234,1.0,2.0,97,0.05,,,0.05,Wunderground v.1.15,2013-04-01 09:05:00,
2013-04-01 05:09:00,55.9,55.1,29.81,WSW,244,1.0,1.0,97,0.04,,,0.05,Wunderground v.1.15,2013-04-01 09:09:00,
2013-04-01 05:15:00,55.9,55.1,29.81,WSW,245,1.0,1.0,97,0.00,,,0.05,Wunderground v.1.15,2013-04-01 09:15:00,
2013-04-01 05:25:00,55.9,55.1,29.81,WSW,248,1.0,1.0,97,0.00,,,0.06,Wunderground v.1.15,2013-04-01 09:25:00,
2013-04-01 05:29:00,56.0,55.2,29.81,WSW,246,1.0,1.0,97,0.00,,,0.06,Wunderground v.1.15,2013-04-01 09:29:00,
2013-04-01 05:35:00,56.0,55.2,29.82,West,278,1.0,1.0,97,0.05,,,0.07,Wunderground v.1.15,2013-04-01 09:35:00,
2013-04-01 05:39:00,55.9,55.1,29.82,West,277,1.0,1.0,97,0.05,,,0.07,Wunderground v.1.15,2013-04-01 09:39:00,
2013-04-01 05:45:00,56.0,55.2,29.82,West,277,1.0,1.0,97,0.07,,,0.08,Wunderground v.1.15,2013-04-01 09:45:00,
2013-04-01 05:49:00,56.0,55.2,29.82,West,277,1.0,2.0,97,0.08,,,0.09,Wunderground v.1.15,2013-04-01 09:49:00,
2013-04-01 05:55:00,56.0,55.4,29.82,West,277,2.0,4.0,98,0.08,,,0.09,Wunderground v.1.15,2013-04-01 09:55:00,
2013-04-01 06:00:00,55.9,55.3,29.82,West,274,2.0,4.0,98,0.06,,,0.09,Wunderground v.1.15,2013-04-01 10:00:00,
2013-04-01 06:05:00,55.9,55.3,29.82,West,260,2.0,4.0,98,0.04,,,0.10,Wunderground v.1.15,2013-04-01 10:05:00,
2013-04-01 06:10:00,55.9,55.3,29.82,West,260,2.0,2.0,98,0.04,,,0.10,Wunderground v.1.15,2013-04-01 10:10:00,
2013-04-01 06:15:00,55.9,55.3,29.82,WSW,246,1.0,2.0,98,0.06,,,0.11,Wunderground v.1.15,2013-04-01 10:15:00,
2013-04-01 06:19:00,55.9,55.3,29.83,WSW,246,1.0,1.0,98,0.06,,,0.11,Wunderground v.1.15,2013-04-01 10:19:00,
2013-04-01 06:25:00,55.8,55.2,29.83,WSW,256,1.0,1.0,98,0.10,,,0.12,Wunderground v.1.15,2013-04-01 10:25:00,
2013-04-01 06:29:00,55.8,55.2,29.83,SW,226,1.0,2.0,98,0.06,,,0.12,Wunderground v.1.15,2013-04-01 10:29:00,
2013-04-01 06:35:00,55.8,55.2,29.83,West,259,1.0,2.0,98,0.04,,,0.12,Wunderground v.1.15,2013-04-01 10:35:00,
2013-04-01 06:40:00,55.8,55.2,29.83,WSW,258,1.0,1.0,98,0.00,,,0.12,Wunderground v.1.15,2013-04-01 10:40:00,
2013-04-01 06:45:00,55.8,55.2,29.83,WSW,242,1.0,2.0,98,0.00,,,0.12,Wunderground v.1.15,2013-04-01 10:45:00,
2013-04-01 06:49:00,55.8,55.2,29.83,WSW,243,1.0,1.0,98,0.00,,,0.12,Wunderground v.1.15,2013-04-01 10:49:00,
2013-04-01 06:55:00,55.8,55.2,29.83,WSW,244,1.0,1.0,98,0.00,,,0.12,Wunderground v.1.15,2013-04-01 10:55:00,
2013-04-01 06:59:00,55.8,55.2,29.83,West,269,0.0,1.0,98,0.00,,,0.12,Wunderground v.1.15,2013-04-01 10:59:00,
2013-04-01 07:05:00,55.7,55.1,29.83,WSW,254,0.0,1.0,98,0.00,,,0.12,Wunderground v.1.15,2013-04-01 11:05:00,
2013-04-01 07:09:00,55.7,55.1,29.83,WSW,254,0.0,0.0,98,0.00,,,0.12,Wunderground v.1.15,2013-04-01 11:09:00,
2013-04-01 07:15:00,55.7,55.1,29.83,WSW,254,0.0,0.0,98,0.00,,,0.12,Wunderground v.1.15,2013-04-01 11:15:00,
2013-04-01 07:25:00,55.7,55.1,29.84,WSW,254,0.0,0.0,98,0.00,,,0.12,Wunderground v.1.15,2013-04-01 11:25:00,
2013-04-01 07:29:00,55.7,55.1,29.84,WSW,254,0.0,0.0,98,0.00,,,0.12,Wunderground v.1.15,2013-04-01 11:29:00,
2013-04-01 07:35:00,55.6,55.0,29.84,WSW,254,0.0,0.0,98,0.00,,,0.12,Wunderground v.1.15,2013-04-01 11:35:00,
2013-04-01 07:39:00,55.6,55.0,29.84,WSW,254,0.0,0.0,98,0.00,,,0.12,Wunderground v.1.15,2013-04-01 11:39:00,
2013-04-01 07:45:00,55.6,55.0,29.84,WSW,254,0.0,0.0,98,0.00,,,0.12,Wunderground v.1.15,2013-04-01 11:45:00,
2013-04-01 07:49:00,55.6,55.0,29.84,West,274,1.0,1.0,98,0.00,,,0.12,Wunderground v.1.15,2013-04-01 11:49:00,
2013-04-01 07:55:00,55.6,55.0,29.84,West,275,1.0,1.0,98,0.00,,,0.12,Wunderground v.1.15,2013-04-01 11:55:00,
2013-04-01 08:00:00,55.6,55.0,29.84,WNW,282,2.0,2.0,98,0.00,,,0.12,Wunderground v.1.15,2013-04-01 12:00:00,
2013-04-01 08:05:00,55.6,55.0,29.84,WNW,283,2.0,2.0,98,0.00,,,0.12,Wunderground v.1.15,2013-04-01 12:05:00,
2013-04-01 08:15:00,55.7,55.1,29.84,West,269,4.0,5.0,98,0.00,,,0.12,Wunderground v.1.15,2013-04-01 12:15:00,
2013-04-01 08:25:00,55.8,55.2,29.84,WNW,285,3.0,4.0,98,0.00,,,0.12,Wunderground v.1.15,2013-04-01 12:25:00,
2013-04-01 08:35:00,55.8,55.2,29.85,West,271,3.0,4.0,98,0.00,,,0.12,Wunderground v.1.15,2013-04-01 12:35:00,
2013-04-01 08:39:00,55.8,55.2,29.85,West,281,4.0,4.0,98,0.00,,,0.12,Wunderground v.1.15,2013-04-01 12:39:00,
2013-04-01 08:45:00,55.8,55.2,29.85,West,279,5.0,5.0,98,0.00,,,0.12,Wunderground v.1.15,2013-04-01 12:45:00,
2013-04-01 08:49:00,55.8,55.2,29.85,WNW,292,4.0,5.0,98,0.00,,,0.12,Wunderground v.1.15,2013-04-01 12:49:00,
2013-04-01 08:55:00,55.8,55.2,29.85,West,281,4.0,5.0,98,0.00,,,0.12,Wunderground v.1.15,2013-04-01 12:55:00,
2013-04-01 09:05:00,55.8,55.2,29.86,West,278,3.0,5.0,98,0.00,,,0.12,Wunderground v.1.15,2013-04-01 13:05:00,
2013-04-01 09:15:00,55.7,55.1,29.86,West,275,4.0,5.0,98,0.00,,,0.12,Wunderground v.1.15,2013-04-01 13:15:00,
2013-04-01 09:19:00,55.7,55.1,29.86,WNW,286,4.0,4.0,98,0.00,,,0.12,Wunderground v.1.15,2013-04-01 13:19:00,
2013-04-01 09:25:00,55.6,55.0,29.86,West,278,4.0,4.0,98,0.00,,,0.12,Wunderground v.1.15,2013-04-01 13:25:00,
2013-04-01 09:35:00,55.7,55.1,29.86,WNW,292,2.0,4.0,98,0.00,,,0.12,Wunderground v.1.15,2013-04-01 13:35:00,
2013-04-01 09:40:00,55.7,55.1,29.86,West,269,3.0,3.0,98,0.00,,,0.12,Wunderground v.1.15,2013-04-01 13:40:00,
2013-04-01 09:45:00,55.9,55.3,29.87,WNW,283,2.0,3.0,98,0.00,,,0.12,Wunderground v.1.15,2013-04-01 13:45:00,
2013-04-01 09:49:00,55.9,55.3,29.87,West,270,2.0,2.0,98,0.00,,,0.12,Wunderground v.1.15,2013-04-01 13:49:00,
2013-04-01 09:55:00,55.9,55.3,29.87,West,269,2.0,2.0,98,0.00,,,0.12,Wunderground v.1.15,2013-04-01 13:55:00,
2013-04-01 09:59:00,56.0,55.4,29.87,WNW,285,2.0,3.0,98,0.00,,,0.12,Wunderground v.1.15,2013-04-01 13:59:00,
2013-04-01 10:09:00,56.1,55.3,29.86,WNW,290,2.0,2.0,97,0.00,,,0.12,Wunderground v.1.15,2013-04-01 14:09:00,
2013-04-01 10:15:00,56.3,55.5,29.86,WNW,302,2.0,2.0,97,0.00,,,0.12,Wunderground v.1.15,2013-04-01 14:15:00,
2013-04-01 10:19:00,56.4,55.3,29.86,West,270,2.0,5.0,96,0.00,,,0.12,Wunderground v.1.15,2013-04-01 14:19:00,
2013-04-01 10:25:00,56.8,55.1,29.86,NW,308,2.0,5.0,94,0.00,,,0.12,Wunderground v.1.15,2013-04-01 14:25:00,
2013-04-01 10:29:00,57.2,54.6,29.86,NNW,348,2.0,2.0,91,0.00,,,0.12,Wunderground v.1.15,2013-04-01 14:29:00,
2013-04-01 10:35:00,57.8,54.0,29.86,WSW,242,3.0,3.0,87,0.00,,,0.12,Wunderground v.1.15,2013-04-01 14:35:00,
2013-04-01 10:39:00,58.5,54.0,29.86,West,259,3.0,3.0,85,0.00,,,0.12,Wunderground v.1.15,2013-04-01 14:39:00,
2013-04-01 10:45:00,59.5,54.3,29.86,WSW,243,2.0,4.0,83,0.00,,,0.12,Wunderground v.1.15,2013-04-01 14:45:00,
2013-04-01 10:49:00,59.9,53.0,29.86,West,259,3.0,5.0,78,0.00,,,0.12,Wunderground v.1.15,2013-04-01 14:49:00,
2013-04-01 10:55:00,60.0,52.4,29.86,West,269,4.0,5.0,76,0.00,,,0.12,Wunderground v.1.15,2013-04-01 14:55:00,
2013-04-01 10:59:00,60.2,52.6,29.86,WSW,258,3.0,3.0,76,0.00,,,0.12,Wunderground v.1.15,2013-04-01 14:59:00,
2013-04-01 11:05:00,60.7,53.1,29.86,WNW,286,2.0,3.0,76,0.00,,,0.12,Wunderground v.1.15,2013-04-01 15:05:00,
2013-04-01 11:09:00,60.8,52.8,29.85,SW,234,2.0,2.0,75,0.00,,,0.12,Wunderground v.1.15,2013-04-01 15:09:00,
2013-04-01 11:15:00,61.2,52.8,29.86,WNW,285,2.0,4.0,74,0.00,,,0.12,Wunderground v.1.15,2013-04-01 15:15:00,
2013-04-01 11:19:00,61.1,51.6,29.85,WNW,302,3.0,3.0,71,0.00,,,0.12,Wunderground v.1.15,2013-04-01 15:19:00,
2013-04-01 11:25:00,61.4,51.1,29.85,ESE,123,3.0,4.0,69,0.00,,,0.12,Wunderground v.1.15,2013-04-01 15:25:00,
2013-04-01 11:29:00,62.2,51.9,29.85,West,263,2.0,2.0,69,0.00,,,0.12,Wunderground v.1.15,2013-04-01 15:29:00,
2013-04-01 11:35:00,62.7,51.6,29.85,West,269,2.0,4.0,67,0.00,,,0.12,Wunderground v.1.15,2013-04-01 15:35:00,
2013-04-01 11:39:00,63.0,51.0,29.85,WSW,247,3.0,3.0,65,0.00,,,0.12,Wunderground v.1.15,2013-04-01 15:39:00,
2013-04-01 11:45:00,63.1,50.7,29.85,West,266,3.0,3.0,64,0.00,,,0.12,Wunderground v.1.15,2013-04-01 15:45:00,
2013-04-01 11:50:00,63.3,51.3,29.85,SW,233,3.0,3.0,65,0.00,,,0.12,Wunderground v.1.15,2013-04-01 15:50:00,
2013-04-01 11:55:00,63.9,51.5,29.85,WNW,285,3.0,7.0,64,0.00,,,0.12,Wunderground v.1.15,2013-04-01 15:55:00,
2013-04-01 11:59:00,63.9,51.1,29.85,West,271,4.0,4.0,63,0.00,,,0.12,Wunderground v.1.15,2013-04-01 15:59:00,
2013-04-01 12:05:00,64.1,51.7,29.85,NW,308,4.0,4.0,64,0.00,,,0.12,Wunderground v.1.15,2013-04-01 16:05:00,
2013-04-01 12:09:00,64.7,52.2,29.85,WNW,283,2.0,3.0,64,0.00,,,0.12,Wunderground v.1.15,2013-04-01 16:09:00,
2013-04-01 12:15:00,65.4,52.5,29.84,NW,305,2.0,3.0,63,0.00,,,0.12,Wunderground v.1.15,2013-04-01 16:15:00,
2013-04-01 12:25:00,66.7,49.0,29.84,WNW,301,2.0,4.0,53,0.00,,,0.12,Wunderground v.1.15,2013-04-01 16:25:00,
2013-04-01 12:29:00,66.6,47.9,29.84,West,274,4.0,8.0,51,0.00,,,0.12,Wunderground v.1.15,2013-04-01 16:29:00,
2013-04-01 12:35:00,66.2,48.0,29.84,West,273,7.0,9.0,52,0.00,,,0.12,Wunderground v.1.15,2013-04-01 16:35:00,
2013-04-01 12:40:00,66.0,47.9,29.84,WNW,294,7.0,7.0,52,0.00,,,0.12,Wunderground v.1.15,2013-04-01 16:40:00,
2013-04-01 12:45:00,66.0,48.9,29.84,WNW,292,5.0,7.0,54,0.00,,,0.12,Wunderground v.1.15,2013-04-01 16:45:00,
2013-04-01 12:59:00,67.3,46.9,29.84,West,280,5.0,6.0,48,0.00,,,0.12,Wunderground v.1.15,2013-04-01 16:59:00,
2013-04-01 13:05:00,67.4,47.6,29.84,SW,220,4.0,6.0,49,0.00,,,0.12,Wunderground v.1.15,2013-04-01 17:05:00,
2013-04-01 13:09:00,68.2,48.3,29.83,SW,223,3.0,4.0,49,0.00,,,0.12,Wunderground v.1.15,2013-04-01 17:09:00,
2013-04-01 13:15:00,68.4,47.4,29.83,WSW,240,5.0,5.0,47,0.00,,,0.12,Wunderground v.1.15,2013-04-01 17:15:00,
2013-04-01 13:19:00,68.5,46.9,29.83,West,274,6.0,6.0,46,0.00,,,0.12,Wunderground v.1.15,2013-04-01 17:19:00,
2013-04-01 13:25:00,68.4,44.4,29.83,West,273,6.0,10.0,42,0.00,,,0.12,Wunderground v.1.15,2013-04-01 17:25:00,
2013-04-01 13:35:00,67.7,45.0,29.83,WNW,293,7.0,9.0,44,0.00,,,0.12,Wunderground v.1.15,2013-04-01 17:35:00,
2013-04-01 13:40:00,67.9,46.3,29.82,WSW,237,5.0,5.0,46,0.00,,,0.12,Wunderground v.1.15,2013-04-01 17:40:00,
2013-04-01 13:45:00,68.3,46.7,29.82,West,263,5.0,8.0,46,0.00,,,0.12,Wunderground v.1.15,2013-04-01 17:45:00,
2013-04-01 13:50:00,68.6,47.6,29.82,WSW,238,6.0,6.0,47,0.00,,,0.12,Wunderground v.1.15,2013-04-01 17:50:00,
2013-04-01 13:55:00,68.9,46.7,29.82,SSW,195,6.0,6.0,45,0.00,,,0.12,Wunderground v.1.15,2013-04-01 17:55:00,
2013-04-01 14:00:00,69.1,46.3,29.82,WSW,255,7.0,7.0,44,0.00,,,0.12,Wunderground v.1.15,2013-04-01 18:00:00,
2013-04-01 14:05:00,69.6,46.7,29.81,West,270,7.0,11.0,44,0.00,,,0.12,Wunderground v.1.15,2013-04-01 18:05:00,
2013-04-01 14:09:00,69.5,44.1,29.81,West,275,7.0,9.0,40,0.00,,,0.12,Wunderground v.1.15,2013-04-01 18:09:00,
2013-04-01 14:15:00,69.3,45.8,29.81,WSW,256,9.0,9.0,43,0.00,,,0.12,Wunderground v.1.15,2013-04-01 18:15:00,
2013-04-01 14:19:00,69.5,44.8,29.81,SSW,213,8.0,8.0,41,0.00,,,0.12,Wunderground v.1.15,2013-04-01 18:19:00,
2013-04-01 14:25:00,70.0,44.6,29.80,SW,233,7.0,8.0,40,0.00,,,0.12,Wunderground v.1.15,2013-04-01 18:25:00,
2013-04-01 14:35:00,70.3,45.5,29.80,West,267,7.0,13.0,41,0.00,,,0.12,Wunderground v.1.15,2013-04-01 18:35:00,
2013-04-01 14:45:00,70.1,45.3,29.80,SSW,194,8.0,9.0,41,0.00,,,0.12,Wunderground v.1.15,2013-04-01 18:45:00,
2013-04-01 14:50:00,70.7,46.5,29.79,West,272,7.0,12.0,42,0.00,,,0.12,Wunderground v.1.15,2013-04-01 18:50:00,
2013-04-01 14:55:00,70.7,45.8,29.79,West,275,8.0,12.0,41,0.00,,,0.12,Wunderground v.1.15,2013-04-01 18:55:00,
2013-04-01 15:05:00,72.8,42.0,29.79,West,274,8.0,9.0,33,0.00,,,0.12,Wunderground v.1.15,2013-04-01 19:05:00,
2013-04-01 15:15:00,72.6,42.6,29.79,WSW,252,7.0,7.0,34,0.00,,,0.12,Wunderground v.1.15,2013-04-01 19:15:00,
2013-04-01 15:19:00,72.3,43.1,29.79,West,279,8.0,8.0,35,0.00,,,0.12,Wunderground v.1.15,2013-04-01 19:19:00,
2013-04-01 15:25:00,73.0,43.7,29.79,WNW,287,7.0,8.0,35,0.00,,,0.12,Wunderground v.1.15,2013-04-01 19:25:00,
2013-04-01 15:35:00,72.0,42.1,29.79,WNW,287,10.0,10.0,34,0.00,,,0.12,Wunderground v.1.15,2013-04-01 19:35:00,
2013-04-01 15:39:00,72.4,42.4,29.78,West,261,9.0,9.0,34,0.00,,,0.12,Wunderground v.1.15,2013-04-01 19:39:00,
2013-04-01 15:45:00,72.5,41.7,29.79,WNW,285,9.0,10.0,33,0.00,,,0.12,Wunderground v.1.15,2013-04-01 19:45:00,
2013-04-01 15:49:00,72.5,41.0,29.79,WNW,283,11.0,13.0,32,0.00,,,0.12,Wunderground v.1.15,2013-04-01 19:49:00,
2013-04-01 15:55:00,72.5,41.0,29.79,WNW,285,11.0,13.0,32,0.00,,,0.12,Wunderground v.1.15,2013-04-01 19:55:00,
2013-04-01 15:59:00,72.7,42.7,29.78,WNW,292,9.0,9.0,34,0.00,,,0.12,Wunderground v.1.15,2013-04-01 19:59:00,
2013-04-01 16:05:00,73.1,42.3,29.78,West,281,7.0,9.0,33,0.00,,,0.12,Wunderground v.1.15,2013-04-01 20:05:00,
2013-04-01 16:09:00,73.6,41.9,29.78,WNW,287,7.0,7.0,32,0.00,,,0.12,Wunderground v.1.15,2013-04-01 20:09:00,
2013-04-01 16:15:00,73.6,41.1,29.78,NW,322,8.0,8.0,31,0.00,,,0.12,Wunderground v.1.15,2013-04-01 20:15:00,
2013-04-01 16:19:00,73.9,40.5,29.79,West,273,9.0,10.0,30,0.00,,,0.12,Wunderground v.1.15,2013-04-01 20:19:00,
2013-04-01 16:25:00,73.8,42.9,29.78,West,281,9.0,10.0,33,0.00,,,0.12,Wunderground v.1.15,2013-04-01 20:25:00,
2013-04-01 16:29:00,73.0,40.6,29.78,WNW,292,9.0,11.0,31,0.00,,,0.12,Wunderground v.1.15,2013-04-01 20:29:00,
2013-04-01 16:35:00,72.6,41.8,29.78,WNW,297,8.0,11.0,33,0.00,,,0.12,Wunderground v.1.15,2013-04-01 20:35:00,
2013-04-01 16:39:00,72.7,40.3,29.78,West,280,9.0,10.0,31,0.00,,,0.12,Wunderground v.1.15,2013-04-01 20:39:00,
2013-04-01 16:45:00,71.8,41.9,29.78,West,276,9.0,10.0,34,0.00,,,0.12,Wunderground v.1.15,2013-04-01 20:45:00,
2013-04-01 16:49:00,71.3,40.7,29.78,WNW,298,8.0,10.0,33,0.00,,,0.12,Wunderground v.1.15,2013-04-01 20:49:00,
2013-04-01 16:55:00,72.0,40.5,29.78,WNW,285,9.0,10.0,32,0.00,,,0.12,Wunderground v.1.15,2013-04-01 20:55:00,
2013-04-01 16:59:00,72.1,40.6,29.78,WSW,248,8.0,8.0,32,0.00,,,0.12,Wunderground v.1.15,2013-04-01 20:59:00,
2013-04-01 17:05:00,71.8,40.3,29.78,WNW,283,8.0,9.0,32,0.00,,,0.12,Wunderground v.1.15,2013-04-01 21:05:00,
2013-04-01 17:15:00,71.8,41.1,29.78,WNW,297,8.0,10.0,33,0.00,,,0.12,Wunderground v.1.15,2013-04-01 21:15:00,
2013-04-01 17:20:00,71.7,41.0,29.78,WNW,283,7.0,7.0,33,0.00,,,0.12,Wunderground v.1.15,2013-04-01 21:20:00,
2013-04-01 17:25:00,71.2,41.4,29.78,WNW,287,7.0,8.0,34,0.00,,,0.12,Wunderground v.1.15,2013-04-01 21:25:00,
2013-04-01 17:35:00,71.0,42.0,29.79,WNW,292,7.0,8.0,35,0.00,,,0.12,Wunderground v.1.15,2013-04-01 21:35:00,
2013-04-01 17:39:00,70.9,41.1,29.79,WNW,288,6.0,6.0,34,0.00,,,0.12,Wunderground v.1.15,2013-04-01 21:39:00,
2013-04-01 17:45:00,70.7,41.7,29.79,NNW,331,6.0,6.0,35,0.00,,,0.12,Wunderground v.1.15,2013-04-01 21:45:00,
2013-04-01 17:55:00,70.4,41.4,29.79,West,280,7.0,7.0,35,0.00,,,0.12,Wunderground v.1.15,2013-04-01 21:55:00,
2013-04-01 17:59:00,70.6,41.6,29.79,NW,315,8.0,8.0,35,0.00,,,0.12,Wunderground v.1.15,2013-04-01 21:59:00,
2013-04-01 18:05:00,70.9,41.1,29.80,WNW,289,8.0,9.0,34,0.00,,,0.12,Wunderground v.1.15,2013-04-01 22:05:00,
2013-04-01 18:15:00,70.6,42.3,29.80,NW,307,6.0,8.0,36,0.00,,,0.12,Wunderground v.1.15,2013-04-01 22:15:00,
2013-04-01 18:25:00,70.4,41.4,29.80,WNW,299,7.0,9.0,35,0.00,,,0.12,Wunderground v.1.15,2013-04-01 22:25:00,
2013-04-01 18:29:00,70.2,42.0,29.81,WNW,289,7.0,7.0,36,0.00,,,0.12,Wunderground v.1.15,2013-04-01 22:29:00,
2013-04-01 18:35:00,70.1,41.9,29.81,WNW,290,5.0,7.0,36,0.00,,,0.12,Wunderground v.1.15,2013-04-01 22:35:00,
2013-04-01 18:39:00,70.3,42.1,29.81,WNW,294,4.0,5.0,36,0.00,,,0.12,Wunderground v.1.15,2013-04-01 22:39:00,
2013-04-01 18:45:00,70.1,41.9,29.81,WNW,291,6.0,7.0,36,0.00,,,0.12,Wunderground v.1.15,2013-04-01 22:45:00,
2013-04-01 18:49:00,69.8,42.3,29.81,West,264,7.0,7.0,37,0.00,,,0.12,Wunderground v.1.15,2013-04-01 22:49:00,
2013-04-01 18:55:00,69.5,41.4,29.81,WNW,296,5.0,7.0,36,0.00,,,0.12,Wunderground v.1.15,2013-04-01 22:55:00,
2013-04-01 19:05:00,69.7,42.3,29.81,NW,304,5.0,5.0,37,0.00,,,0.12,Wunderground v.1.15,2013-04-01 23:05:00,
2013-04-01 19:09:00,69.7,42.3,29.81,WNW,295,5.0,5.0,37,0.00,,,0.12,Wunderground v.1.15,2013-04-01 23:09:00,
2013-04-01 19:15:00,69.5,42.1,29.81,WNW,284,4.0,5.0,37,0.00,,,0.12,Wunderground v.1.15,2013-04-01 23:15:00,
2013-04-01 19:25:00,68.7,42.7,29.81,NW,306,2.0,3.0,39,0.00,,,0.12,Wunderground v.1.15,2013-04-01 23:25:00,
2013-04-01 19:35:00,67.9,42.0,29.81,NW,306,2.0,3.0,39,0.00,,,0.12,Wunderground v.1.15,2013-04-01 23:35:00,
2013-04-01 19:45:00,67.0,42.5,29.82,NW,306,2.0,2.0,41,0.00,,,0.12,Wunderground v.1.15,2013-04-01 23:45:00,
2013-04-01 19:49:00,66.6,41.5,29.82,NNW,348,3.0,5.0,40,0.00,,,0.12,Wunderground v.1.15,2013-04-01 23:49:00,
2013-04-01 19:55:00,66.3,42.5,29.82,NW,320,3.0,5.0,42,0.00,,,0.12,Wunderground v.1.15,2013-04-01 23:55:00,
2013-04-01 20:00:00,65.9,42.1,29.83,WNW,298,4.0,4.0,42,0.00,,,0.12,Wunderground v.1.15,2013-04-02 00:00:00,
2013-04-01 20:09:00,65.3,42.2,29.83,NW,319,3.0,4.0,43,0.00,,,0.12,Wunderground v.1.15,2013-04-02 00:09:00,
2013-04-01 20:15:00,65.0,41.9,29.83,North,359,3.0,4.0,43,0.00,,,0.12,Wunderground v.1.15,2013-04-02 00:15:00,
2013-04-01 20:25:00,64.6,41.6,29.83,NW,321,3.0,6.0,43,0.00,,,0.12,Wunderground v.1.15,2013-04-02 00:25:00,
2013-04-01 20:30:00,64.4,41.4,29.83,NW,316,4.0,4.0,43,0.00,,,0.12,Wunderground v.1.15,2013-04-02 00:30:00,
2013-04-01 20:35:00,64.2,41.8,29.83,NNW,348,4.0,4.0,44,0.00,,,0.12,Wunderground v.1.15,2013-04-02 00:35:00,
2013-04-01 20:39:00,64.0,41.6,29.84,NNW,329,3.0,3.0,44,0.00,,,0.12,Wunderground v.1.15,2013-04-02 00:39:00,
2013-04-01 20:45:00,63.7,41.9,29.84,NW,312,3.0,4.0,45,0.00,,,0.12,Wunderground v.1.15,2013-04-02 00:45:00,
2013-04-01 20:49:00,63.4,41.7,29.84,NW,319,3.0,3.0,45,0.00,,,0.12,Wunderground v.1.15,2013-04-02 00:49:00,
2013-04-01 20:55:00,63.0,41.9,29.84,NW,324,3.0,3.0,46,0.00,,,0.12,Wunderground v.1.15,2013-04-02 00:55:00,
2013-04-01 21:05:00,62.5,42.0,29.85,NNW,348,2.0,3.0,47,0.00,,,0.12,Wunderground v.1.15,2013-04-02 01:05:00,
2013-04-01 21:09:00,62.5,42.0,29.85,WNW,292,3.0,3.0,47,0.00,,,0.12,Wunderground v.1.15,2013-04-02 01:09:00,
2013-04-01 21:15:00,62.5,42.0,29.85,NW,314,4.0,4.0,47,0.00,,,0.12,Wunderground v.1.15,2013-04-02 01:15:00,
2013-04-01 21:19:00,62.3,41.8,29.85,NW,323,3.0,3.0,47,0.00,,,0.12,Wunderground v.1.15,2013-04-02 01:19:00,
2013-04-01 21:25:00,62.2,41.7,29.85,NW,326,3.0,4.0,47,0.00,,,0.12,Wunderground v.1.15,2013-04-02 01:25:00,
2013-04-01 21:29:00,62.2,41.7,29.86,NW,308,3.0,3.0,47,0.00,,,0.12,Wunderground v.1.15,2013-04-02 01:29:00,
2013-04-01 21:35:00,62.1,41.6,29.86,North,354,3.0,3.0,47,0.00,,,0.12,Wunderground v.1.15,2013-04-02 01:35:00,
2013-04-01 21:45:00,62.1,41.6,29.86,NNW,348,4.0,7.0,47,0.00,,,0.12,Wunderground v.1.15,2013-04-02 01:45:00,
2013-04-01 21:55:00,62.2,41.7,29.86,WNW,297,5.0,9.0,47,0.00,,,0.12,Wunderground v.1.15,2013-04-02 01:55:00,
2013-04-01 22:00:00,62.3,41.8,29.86,NW,314,5.0,5.0,47,0.00,,,0.12,Wunderground v.1.15,2013-04-02 02:00:00,
2013-04-01 22:05:00,62.3,41.2,29.87,West,274,5.0,7.0,46,0.00,,,0.12,Wunderground v.1.15,2013-04-02 02:05:00,
2013-04-01 22:15:00,62.2,41.7,29.87,NW,310,5.0,6.0,47,0.00,,,0.12,Wunderground v.1.15,2013-04-02 02:15:00,
2013-04-01 22:19:00,62.0,41.5,29.88,WNW,289,5.0,5.0,47,0.00,,,0.12,Wunderground v.1.15,2013-04-02 02:19:00,
2013-04-01 22:25:00,61.8,41.9,29.88,NW,325,4.0,5.0,48,0.00,,,0.12,Wunderground v.1.15,2013-04-02 02:25:00,
2013-04-01 22:29:00,61.5,41.6,29.88,NNW,327,3.0,3.0,48,0.00,,,0.12,Wunderground v.1.15,2013-04-02 02:29:00,
2013-04-01 22:35:00,61.3,41.4,29.88,NNW,329,3.0,3.0,48,0.00,,,0.12,Wunderground v.1.15,2013-04-02 02:35:00,
2013-04-01 22:39:00,61.1,41.8,29.88,NW,326,3.0,3.0,49,0.00,,,0.12,Wunderground v.1.15,2013-04-02 02:39:00,
2013-04-01 22:45:00,60.8,41.5,29.89,NW,326,2.0,3.0,49,0.00,,,0.12,Wunderground v.1.15,2013-04-02 02:45:00,
2013-04-01 22:49:00,60.6,41.8,29.89,NW,326,2.0,2.0,50,0.00,,,0.12,Wunderground v.1.15,2013-04-02 02:49:00,
2013-04-01 22:55:00,60.3,41.6,29.89,NW,326,2.0,2.0,50,0.00,,,0.12,Wunderground v.1.15,2013-04-02 02:55:00,
2013-04-01 23:05:00,60.0,41.8,29.89,NW,326,2.0,3.0,51,0.00,,,0.12,Wunderground v.1.15,2013-04-02 03:05:00,
2013-04-01 23:09:00,59.8,41.6,29.89,NW,326,1.0,1.0,51,0.00,,,0.12,Wunderground v.1.15,2013-04-02 03:09:00,
2013-04-01 23:15:00,59.6,41.4,29.89,NW,326,1.0,2.0,51,0.00,,,0.12,Wunderground v.1.15,2013-04-02 03:15:00,
2013-04-01 23:25:00,59.3,41.7,29.90,North,9,2.0,2.0,52,0.00,,,0.12,Wunderground v.1.15,2013-04-02 03:25:00,
2013-04-01 23:29:00,59.2,41.6,29.90,NNW,333,2.0,2.0,52,0.00,,,0.12,Wunderground v.1.15,2013-04-02 03:29:00,
2013-04-01 23:35:00,59.0,41.4,29.90,NW,323,2.0,4.0,52,0.00,,,0.12,Wunderground v.1.15,2013-04-02 03:35:00,
2013-04-01 23:39:00,58.9,41.3,29.90,NNW,338,3.0,4.0,52,0.00,,,0.12,Wunderground v.1.15,2013-04-02 03:39:00,
2013-04-01 23:45:00,58.8,41.2,29.90,NNE,32,3.0,4.0,52,0.00,,,0.12,Wunderground v.1.15,2013-04-02 03:45:00,
2013-04-01 23:55:00,58.6,41.5,29.91,North,355,2.0,2.0,53,0.00,,,0.12,Wunderground v.1.15,2013-04-02 03:55:00,
2013-04-01 23:59:00,58.4,41.3,29.91,North,360,1.0,1.0,53,0.00,,,0.00,Wunderground v.1.15,2013-04-02 03:59:00,